Orbital Elements at Epoch 2459200.5 (2020-Dec-17.0) TDB
Reference: JPL 17 (heliocentric ecliptic J2000)
Element | Value | Uncertainty (1-sigma) | Units |
e | .1663928675824157 | 4.8825e-08 | |
a | 2.380167913713152 | 1.225e-08 | au |
q | 1.984124949222764 | 1.1653e-07 | au |
i | 3.949783572436449 | 5.1294e-06 | deg |
node | 344.2069204989472 | 6.1062e-05 | deg |
peri | 198.6893340541201 | 6.2602e-05 | deg |
M | 342.1207713658836 | 1.7755e-05 | deg |
tp | 2459267.112556039535 (2021-Feb-21.61255604) | 6.6469e-05 | TDB |
period | 1341.250266718663 3.67 | 1.0354e-05 2.835e-08 | d yr |
n | .2684062839970437 | 2.0721e-09 | deg/d |
Q | 2.776210878203539 | 1.4288e-08 | au |
|
| | Orbit Determination Parameters
Additional Information
|